CAPE
0 0 0 0 0 0 0 0 0 0 0 0 0 3 19 29 15 10 8 22 14 10
0 0 0 0 0 0 0 0 0 0 0 0 0 3 39 36 12 27 15 26 30 12
0 0 0 0 0 0 0 0 0 0 0 0 0 4 15 28 30 16 29 33 9 17
0 0 0 0 0 0 0 0 0 0 0 1 3 7 16 16 12 19 28 12 12 12
0 0 0 0 0 0 0 0 0 0 0 2 6 5 17 21 12 0 0 2 4 14
0 0 0 0 0 0 0 0 0 0 2 5 9 15 7 11 12 8 7 4 7 8
0 0 0 0 0 0 0 0 0 1 5 11 14 10 12 10 11 3 4 9 5 0
0 0 0 0 0 0 0 0 0 2 5 11 11 4 1 4 2 3 6 6 0 0
0 0 0 0 0 0 0 0 1 4 13 9 6 0 0 0 0 0 0 0 0 0
0 0 0 0 0 0 0 2 4 11 16 16 9 0 0 0 0 0 0 0 0 0
0 0 0 0 0 0 0 5 5 11 17 12 0 0 0 0 0 0 0 0 0 0
0 0 0 0 0 0 0 2 4 6 7 5 0 0 0 0 0 0 1 0 0 0
0 0 0 0 0 0 0 4 5 2 5 2 2 0 0 0 0 0 1 1 0 0
0 0 0 0 0 0 2 3 3 0 2 6 0 2 0 0 0 0 0 0 0 1
CIN
0 0 0 0 0 0 0 0 0 0 0 0 0 -1 -2 -2 -1 -5 -1 -1 -1 -2
0 0 0 0 0 0 0 0 0 0 0 0 0 0 -1 -1 -1 -1 -3 -2 -1 -1
0 0 0 0 0 0 0 0 0 0 0 0 0 -2 -1 -1 -2 -2 -2 -2 -3 -2
0 0 0 0 0 0 0 0 0 0 0 -2 -1 -2 -2 -7 -4 -1 -1 -4 -1 -3
0 0 0 0 0 0 0 0 0 0 0 -1 -1 -1 -4 0 -1 -1 -1 -3 -1 -3
0 0 0 0 0 0 0 0 0 0 -1 -2 -2 -1 -4 -7 0 -1 -1 -1 -2 -3
0 0 0 0 0 0 0 0 0 -1 -2 -2 -1 -1 -2 -1 -1 -1 -3 -1 -2 0
0 0 0 0 0 0 0 0 -1 -2 -2 -2 -1 -2 -1 -3 -1 -2 -3 -2 0 0
0 0 0 0 0 0 0 0 -1 -2 -1 -1 -2 0 0 0 0 0 0 0 0 0
0 0 0 0 0 0 0 -1 -2 -1 -1 -1 -1 0 0 0 0 0 0 0 0 0
0 0 0 0 0 0 0 -2 -2 -3 -1 -1 -8 0 0 0 0 0 -1 0 0 0
0 0 0 0 0 0 0 -2 -2 -2 -1 -1 0 0 0 0 0 0 -1 -1 0 0
0 0 0 0 0 0 -1 -2 -2 -2 -1 0 -2 0 0 0 0 -1 -1 -2 0 0
0 0 0 0 0 0 -2 -1 -2 -9 -6 -1 -1 -1 0 0 0 0 -1 0 0 -1
Wind_Speed
15 17 18 19 23 25 26 27 29 30 32 33 33 32 29 29 31 31 30 29 28 28
16 18 20 21 23 25 26 27 29 32 33 34 34 33 30 29 31 29 29 27 24 24
17 19 19 22 24 26 26 27 30 32 34 34 34 32 31 31 30 28 28 25 23 25
18 18 21 23 24 25 26 28 31 33 34 33 33 33 33 33 32 31 26 21 24 25
16 20 22 25 26 25 26 28 31 33 33 32 34 34 33 36 30 26 25 25 25 26
17 20 24 26 26 25 27 29 31 32 31 32 33 34 32 30 27 24 23 23 24 27
19 23 25 26 26 26 27 29 31 30 31 31 31 31 28 26 24 23 23 23 25 28
20 24 26 26 26 26 27 29 29 29 30 29 30 27 28 25 24 24 24 25 25 26
22 25 26 27 26 27 28 29 29 30 29 29 29 24 24 23 24 25 24 24 25 26
22 25 26 27 28 29 30 29 29 30 30 28 26 21 21 22 24 24 23 23 25 27
24 26 27 28 29 31 31 30 31 31 29 27 24 18 20 21 23 22 21 23 25 25
24 26 27 29 30 31 31 31 32 30 26 24 20 16 17 21 22 21 22 23 23 25
25 27 28 30 31 31 30 30 29 27 25 22 19 16 16 19 20 21 21 23 23 22
26 27 28 31 31 31 31 31 29 26 23 21 17 16 15 17 19 20 22 23 23 23
Wind_Direction
352 348 350 349 344 342 343 343 342 342 340 339 338 337 337 334 332 333 332 329 325 327
345 345 343 343 344 344 343 343 342 341 340 339 339 338 334 333 331 330 330 329 325 327
341 338 341 341 341 342 342 342 341 341 341 341 341 340 338 335 332 329 332 331 328 328
332 335 336 338 340 340 340 340 340 340 340 341 341 341 342 340 337 332 329 332 332 329
330 333 334 336 337 337 337 337 338 339 339 341 341 340 340 337 337 340 338 336 334 331
327 331 333 335 335 334 334 335 337 338 339 340 342 341 344 343 344 343 339 338 336 332
326 331 333 333 333 333 334 335 336 337 339 341 342 345 346 348 347 346 342 339 336 333
326 330 331 332 332 333 334 334 335 337 338 341 341 346 349 350 349 344 340 339 338 337
327 329 331 332 332 332 333 334 336 337 338 340 341 349 352 351 349 344 342 341 340 339
328 329 331 332 332 332 332 335 335 336 337 338 342 350 353 351 349 346 346 344 342 341
328 329 331 331 329 329 331 333 334 335 338 339 344 350 352 351 348 348 348 346 344 344
330 331 330 330 330 330 330 331 334 335 339 340 345 349 351 349 349 349 347 347 347 347
330 329 330 331 330 330 330 331 334 338 342 344 345 348 348 348 349 347 347 348 349 354
328 327 331 332 332 331 329 332 336 338 341 340 344 346 346 348 348 347 346 347 350 352